Pocatello Regional Airport
KPIH : now visible

Airfield :











YOU CAN JOIN US ON...

 
LOGIN :

Register | Disclaimer

   EN    FR    IT 

 









Legend :    VFR   Marginal VFR   IFR   Intensive IFR   Very Intensive IFR
Visi :
Ceiling :
>= 8 km
>= 3000ft
5 to 8 km
1000 to 3000 ft
1500m to 5 km
500 to 1000 ft
800 to 1500m
200 to 500 ft
< 800m
< 200 ft
Symbols :   Thunderstorms  Fog  Heavy snow  Heavy precipitations  Wind > 20 kt






- Airport Elevation : 4452 ft
- IATA code : PIH


KPIH - Pocatello Regional

CURRENT METAR :
  • 261253Z 07004KT 10SM CLR 07/M01 A3004 RMK AO2 SLP142 T00671006

EXPIRED METARs :
  • 261153Z 33004KT 10SM CLR 08/01 A3003 RMK AO2 SLP131 T00780006 10194 20067 53005
  • 261053Z 05003KT 10SM CLR 09/M01 A3002 RMK AO2 SLP125 T00941006

TAF KPIH
Valid from the 26 at 12:00 until the 27 at 12:00 UTC


261124Z 2612/2712 21006KT P6SM SKC
FM261900 25014G23KT P6SM SKC
FM270300 19010KT P6SM SKC
KZLC FIR / North America



MET'MAP, your aeronautical weather chart ! - Copyright ORBIFLY December 2007 - Disclaimer

ORBIFLY MET'MAP TEAM :

Programming & Development : Alexandra Zaïnal
Concept & original design : Baudouin d'Aumeries
Assistance for programming : Marc-Olivier Méhu
Technical & hardware support : Manuel Goepfert

Contact : metmap@orbifly.com




SOURCES & CREDITS :

   NOAA       Earth
Advisory